When you browse on this site, cookies collect data to enhance your experience and personalize the content and advertising you see.
Visit our Privacy Policy to learn more. By continuing to use the site, you agree to this use of cookies and data.
  • In United Kingdom
  • List of Countries
  • For 7 days
  • Water Temperature
  • Weather Map
  • Weather Widgets
  • user-avatar
    Login

    Hourly Weather Julianow

    Today, 16 October, Wednesday

    Time Temperature Precipitation Wind Pressure Humidity
    00:00 +14°C° 0 mm 3 mps 748 mmHg 75%
    01:00 +13°C° 0 mm 3 mps 748 mmHg 73%
    02:00 +13°C° 0 mm 3 mps 748 mmHg 74%
    03:00 +13°C° 0 mm 3 mps 748 mmHg 76%
    04:00 +12°C° 0 mm 3 mps 747 mmHg 78%
    05:00 +13°C° 0 mm 3 mps 747 mmHg 77%
    06:00 +13°C° 0 mm 4 mps 748 mmHg 75%
    07:00 +13°C° 0 mm 4 mps 748 mmHg 73%
    08:00 +15°C° 0 mm 5 mps 748 mmHg 67%
    09:00 +17°C° 0 mm 6 mps 748 mmHg 62%
    10:00 +20°C° 0 mm 6 mps 748 mmHg 56%
    11:00 +21°C° 0 mm 6 mps 748 mmHg 57%
    12:00 +21°C° 0 mm 7 mps 748 mmHg 58%
    13:00 +22°C° 0 mm 7 mps 748 mmHg 59%
    14:00 +20°C° 0 mm 6 mps 749 mmHg 64%
    15:00 +19°C° 0 mm 6 mps 749 mmHg 69%
    16:00 +17°C° 0 mm 6 mps 749 mmHg 74%
    17:00 +16°C° 0 mm 6 mps 749 mmHg 74%
    18:00 +15°C° 0 mm 5 mps 750 mmHg 75%
    19:00 +14°C° 0 mm 5 mps 750 mmHg 75%
    20:00 +14°C° 0 mm 5 mps 751 mmHg 75%
    21:00 +13°C° 0 mm 5 mps 751 mmHg 75%
    22:00 +12°C° 0 mm 4 mps 751 mmHg 75%
    23:00 +12°C° 0 mm 4 mps 752 mmHg 74%

    Tomorrow, 17 October, Thursday

    Time Temperature Precipitation Wind Pressure Humidity
    00:00 +12°C° 0 mm 4 mps 752 mmHg 73%
    01:00 +12°C° 0 mm 4 mps 752 mmHg 71%
    02:00 +11°C° 0 mm 4 mps 752 mmHg 72%
    03:00 +11°C° 0 mm 4 mps 752 mmHg 73%
    04:00 +11°C° 0 mm 4 mps 752 mmHg 74%
    05:00 +10°C° 0 mm 4 mps 752 mmHg 75%
    06:00 +10°C° 0 mm 4 mps 753 mmHg 75%
    07:00 +10°C° 0 mm 4 mps 753 mmHg 76%
    08:00 +12°C° 0 mm 4 mps 753 mmHg 71%
    09:00 +13°C° 0 mm 4 mps 753 mmHg 65%
    10:00 +15°C° 0 mm 4 mps 754 mmHg 60%
    11:00 +17°C° 0 mm 4 mps 754 mmHg 57%
    12:00 +18°C° 0 mm 4 mps 753 mmHg 54%
    13:00 +19°C° 0 mm 3 mps 753 mmHg 51%
    14:00 +19°C° 0 mm 3 mps 753 mmHg 53%
    15:00 +18°C° 0 mm 3 mps 753 mmHg 56%
    16:00 +18°C° 0 mm 2 mps 753 mmHg 58%
    17:00 +17°C° 0 mm 2 mps 753 mmHg 61%
    18:00 +16°C° 0 mm 3 mps 753 mmHg 63%
    19:00 +14°C° 0 mm 3 mps 753 mmHg 66%
    20:00 +14°C° 0 mm 3 mps 754 mmHg 67%
    21:00 +13°C° 0 mm 3 mps 754 mmHg 68%
    22:00 +13°C° 0 mm 3 mps 754 mmHg 68%
    23:00 +14°C° 0 mm 2 mps 754 mmHg 68%

    Day after tomorrow, 18 October, Friday

    Time Temperature Precipitation Wind Pressure Humidity
    00:00 +13°C° 0 mm 2 mps 754 mmHg 68%
    01:00 +13°C° 0 mm 2 mps 754 mmHg 68%
    02:00 +13°C° 0 mm 2 mps 754 mmHg 70%
    03:00 +13°C° 0 mm 2 mps 753 mmHg 71%
    04:00 +12°C° 0 mm 2 mps 753 mmHg 73%
    05:00 +12°C° 0 mm 2 mps 753 mmHg 73%
    06:00 +12°C° 0 mm 2 mps 754 mmHg 74%
    07:00 +13°C° 0 mm 2 mps 754 mmHg 75%
    08:00 +14°C° 0 mm 2 mps 754 mmHg 70%
    09:00 +16°C° 0 mm 2 mps 754 mmHg 65%
    10:00 +17°C° 0 mm 2 mps 753 mmHg 60%
    11:00 +18°C° 0 mm 2 mps 753 mmHg 58%
    12:00 +19°C° 0 mm 2 mps 753 mmHg 56%
    13:00 +20°C° 0 mm 2 mps 753 mmHg 54%
    14:00 +19°C° 0 mm 2 mps 753 mmHg 57%
    15:00 +18°C° 0 mm 2 mps 752 mmHg 61%
    16:00 +19°C° 0 mm 1 mps 752 mmHg 64%
    17:00 +18°C° 0 mm 1 mps 752 mmHg 66%
    18:00 +16°C° 0 mm 1 mps 752 mmHg 68%
    19:00 +16°C° 0 mm 2 mps 752 mmHg 70%
    20:00 +15°C° 0 mm 2 mps 752 mmHg 72%
    21:00 +15°C° 0 mm 2 mps 752 mmHg 73%
    22:00 +15°C° 0 mm 2 mps 752 mmHg 75%
    23:00 +14°C° 0 mm 2 mps 752 mmHg 75%

    19 October, Saturday

    Time Temperature Precipitation Wind Pressure Humidity
    00:00 +14°C° 0 mm 2 mps 752 mmHg 76%
    01:00 +14°C° 0 mm 2 mps 752 mmHg 77%
    02:00 +14°C° 0 mm 2 mps 752 mmHg 78%
    03:00 +13°C° 0 mm 1 mps 752 mmHg 78%
    04:00 +13°C° 0 mm 1 mps 752 mmHg 78%
    05:00 +13°C° 0 mm 2 mps 752 mmHg 77%
    06:00 +13°C° 0 mm 2 mps 752 mmHg 77%
    07:00 +13°C° 0 mm 2 mps 752 mmHg 76%
    08:00 +15°C° 0 mm 2 mps 751 mmHg 71%
    09:00 +16°C° 0 mm 2 mps 751 mmHg 65%
    10:00 +18°C° 0 mm 3 mps 751 mmHg 60%
    11:00 +19°C° 0 mm 2 mps 751 mmHg 59%
    12:00 +19°C° 0 mm 2 mps 751 mmHg 58%
    13:00 +20°C° 0 mm 2 mps 750 mmHg 57%
    14:00 +19°C° 0 mm 2 mps 750 mmHg 61%
    15:00 +20°C° 0 mm 1 mps 750 mmHg 64%
    16:00 +19°C° 0 mm 1 mps 750 mmHg 67%
    17:00 +18°C° 0 mm 1 mps 750 mmHg 70%
    18:00 +16°C° 0 mm 1 mps 750 mmHg 72%
    19:00 +16°C° 0 mm 1 mps 751 mmHg 74%
    20:00 +15°C° 0 mm 1 mps 750 mmHg 75%
    21:00 +15°C° 0 mm 1 mps 750 mmHg 76%
    22:00 +15°C° 0 mm 1 mps 750 mmHg 77%
    23:00 +14°C° 0 mm 1 mps 750 mmHg 78%

    20 October, Sunday

    Time Temperature Precipitation Wind Pressure Humidity
    00:00 +14°C° 0 mm 2 mps 750 mmHg 80%
    01:00 +14°C° 0 mm 2 mps 750 mmHg 81%
    02:00 +14°C° 0 mm 2 mps 750 mmHg 82%
    03:00 +14°C° 0 mm 2 mps 751 mmHg 83%
    04:00 +13°C° 0 mm 2 mps 751 mmHg 84%
    05:00 +13°C° 0 mm 2 mps 751 mmHg 84%
    06:00 +13°C° 0 mm 2 mps 751 mmHg 83%
    07:00 +12°C° 0 mm 3 mps 751 mmHg 82%
    08:00 +15°C° 0 mm 2 mps 751 mmHg 75%
    09:00 +17°C° 0 mm 2 mps 751 mmHg 68%
    10:00 +18°C° 0 mm 2 mps 751 mmHg 61%
    11:00 +19°C° 0 mm 2 mps 751 mmHg 58%
    12:00 +20°C° 0 mm 2 mps 751 mmHg 54%
    13:00 +21°C° 0 mm 2 mps 751 mmHg 50%
    14:00 +20°C° 0 mm 2 mps 751 mmHg 53%
    15:00 +21°C° 0 mm 1 mps 751 mmHg 56%
    16:00 +20°C° 0 mm 1 mps 751 mmHg 59%
    17:00 +18°C° 0 mm 2 mps 751 mmHg 62%
    18:00 +18°C° 0 mm 2 mps 752 mmHg 64%
    19:00 +17°C° 0 mm 2 mps 752 mmHg 67%
    20:00 +16°C° 0 mm 2 mps 753 mmHg 71%
    21:00 +15°C° 0 mm 2 mps 753 mmHg 75%
    22:00 +15°C° 0 mm 2 mps 754 mmHg 79%
    23:00 +14°C° 0 mm 2 mps 754 mmHg 82%

    21 October, Monday

    Time Temperature Precipitation Wind Pressure Humidity
    00:00 +14°C° 0 mm 2 mps 754 mmHg 84%
    01:00 +13°C° 0 mm 2 mps 754 mmHg 87%
    02:00 +13°C° 0 mm 2 mps 754 mmHg 88%
    03:00 +13°C° 0 mm 2 mps 755 mmHg 90%
    04:00 +12°C° 0 mm 2 mps 755 mmHg 91%
    05:00 +12°C° 0 mm 1 mps 755 mmHg 91%
    06:00 +12°C° 0 mm 1 mps 755 mmHg 90%
    07:00 +12°C° 0 mm 1 mps 755 mmHg 90%
    08:00 +14°C° 0 mm 1 mps 756 mmHg 84%
    09:00 +14°C° 0 mm 0 mps 756 mmHg 77%
    10:00 +16°C° 0 mm 0 mps 756 mmHg 71%
    11:00 +16°C° 0 mm 0 mps 756 mmHg 67%
    12:00 +17°C° 0 mm 0 mps 756 mmHg 64%
    13:00 +18°C° 0 mm 0 mps 756 mmHg 60%
    14:00 +19°C° 0 mm 1 mps 756 mmHg 63%
    15:00 +19°C° 0 mm 1 mps 756 mmHg 66%
    16:00 +18°C° 0 mm 1 mps 756 mmHg 69%
    17:00 +17°C° 0 mm 2 mps 756 mmHg 72%
    18:00 +16°C° 0 mm 2 mps 757 mmHg 75%
    19:00 +15°C° 0 mm 2 mps 757 mmHg 78%
    20:00 +15°C° 0 mm 2 mps 757 mmHg 80%
    21:00 +15°C° 0 mm 2 mps 757 mmHg 81%
    22:00 +14°C° 0 mm 2 mps 757 mmHg 82%
    23:00 +14°C° 0 mm 2 mps 757 mmHg 83%
    Show more